Date,TemperatureHighF,TemperatureAvgF,TemperatureLowF,DewpointHighF,DewpointAvgF,DewpointLowF,HumidityHigh,HumidityAvg,HumidityLow,PressureMaxIn,PressureMinIn,WindSpeedMaxMPH,WindSpeedAvgMPH,GustSpeedMaxMPH,PrecipitationSumIn
2013-2-1,15.7,11.3,6.4,10.0,5.2,1.0,80,76,70,30.43,30.11,17,8,26,0.00
2013-2-2,26.0,21.6,15.7,23.0,18.4,10.0,92,87,78,30.32,30.02,13,5,19,0.00
2013-2-3,22.1,17.1,11.9,19.0,13.5,9.0,92,85,80,30.13,29.99,13,4,17,0.00
2013-2-4,32.6,24.8,14.8,29.0,21.8,12.0,92,88,77,30.13,29.86,7,3,9,0.05
2013-2-5,33.4,26.9,18.6,31.0,23.8,17.0,94,88,76,30.05,29.86,10,4,17,0.00
2013-2-6,37.0,32.2,28.7,29.0,26.2,24.0,88,78,68,30.30,30.06,11,3,15,0.00
2013-2-7,48.5,38.1,30.1,41.0,33.2,27.0,94,83,74,30.24,29.80,9,4,11,0.08
2013-2-8,40.9,33.1,23.9,40.0,29.2,21.0,96,85,75,30.38,29.81,20,6,23,0.04
2013-2-9,37.4,28.6,20.4,28.0,23.8,19.0,94,83,68,30.47,30.25,9,3,14,0.00
2013-2-10,50.0,41.1,30.6,48.0,35.5,26.0,95,80,68,30.24,29.70,15,6,27,0.07
2013-2-11,50.2,39.1,32.5,48.0,32.8,26.0,93,78,71,30.02,29.66,27,12,36,0.00
2013-2-12,38.0,32.5,29.3,31.0,27.0,24.0,87,80,74,30.14,29.97,15,5,22,0.00
2013-2-13,42.5,33.1,27.0,33.0,27.9,24.0,89,81,67,29.97,29.79,8,3,12,0.00
2013-2-14,35.8,34.6,33.5,34.0,31.5,30.0,93,88,79,29.85,29.83,10,6,15,0.00
2013-2-19,25.2,20.7,17.9,20.0,14.1,-99.9,88,79,75,30.13,0.00,24,-3,34,0.00
2013-2-20,22.6,12.0,13.2,16.0,-28.2,-99.9,86,49,71,30.36,30.14,17,-360,19,0.00
2013-2-21,23.8,5.5,22.9,19.0,-72.3,-99.9,81,19,79,30.40,30.13,7,-764,10,0.00
2013-2-22,35.7,30.6,24.1,35.0,27.0,-99.9,97,92,87,30.14,29.91,18,-15,25,0.09
2013-2-23,31.9,29.4,26.9,30.0,24.5,23.0,93,82,74,30.02,29.95,11,6,18,0.00
2013-2-24,37.7,29.6,23.9,26.0,23.3,21.0,91,78,62,30.19,30.00,9,3,15,0.00
2013-2-25,43.1,32.3,21.8,32.0,27.0,20.0,96,81,62,30.23,29.99,14,5,17,0.00
2013-2-26,35.2,33.5,32.0,34.0,31.1,27.0,97,90,81,29.99,29.45,19,6,27,0.89
2013-2-27,36.4,34.3,31.7,36.0,33.0,30.0,97,95,90,29.67,29.48,14,6,22,0.11
2013-2-28,37.8,34.7,32.1,34.0,32.6,31.0,97,92,86,29.99,29.65,10,5,18,0.05